contact:dominique.lefevre@mio.osupytheas.fr, maurice.libes@osupytheas.fr, didier.mallarino@osupytheas.fr
Project:EMSO http://www.emso-fr.org/EMSO-France
Depth: 2436.0 m
Title:EMSO Ligure Ouest : Data MII capteur AQUADOPP
Date,Latitude,Longitude,X_East,Y_North,Z_Up,Amplitude_X,Amplitude_Y,Amplitude_Z,Batterie,SoundSpeed,Heading,Pitch,Roll,Pressure,TIS,Speed,Direction
, degrees North, degrees East, m.s-1, m.s-1,m.s-1, 1, 1, 1, Volt, m.s-1, degree, degree, degree, dbar, degree_C, m.s-1, degree
2020-06-20T00:04:03,42.805,6.029,0.039,0.003,0.002,104.0,109.0,101.0,13.4,1505.2,326.4,-0.7,1.8,2470.411,13.3,0.039,85.6
2020-06-20T00:07:03,42.805,6.029,0.052,-0.009,-0.015,104.0,108.0,101.0,13.4,1505.3,326.4,-0.8,1.8,2470.392,13.31,0.052,99.8
2020-06-20T00:10:03,42.805,6.029,0.05,0.006,-0.007,103.0,109.0,101.0,13.3,1505.3,323.8,-0.7,1.8,2470.37,13.31,0.05,83.2
2020-06-20T00:13:03,42.805,6.029,0.03,0.013,0.033,102.0,108.0,101.0,13.4,1505.3,328.2,-0.7,1.8,2470.403,13.32,0.032,66.6
2020-06-20T00:16:03,42.805,6.029,0.026,0.003,-0.007,104.0,108.0,100.0,13.4,1505.3,326.1,-0.7,1.8,2470.387,13.32,0.026,83.4
2020-06-20T00:19:03,42.805,6.029,0.026,-0.009,-0.02,103.0,111.0,100.0,13.4,1505.3,325.9,-0.7,1.9,2470.377,13.32,0.027,109.1
2020-06-20T00:22:03,42.805,6.029,0.023,0.0,0.0,103.0,107.0,101.0,13.4,1505.3,324.4,-0.7,1.9,2470.358,13.32,0.023,90.0
2020-06-20T00:25:03,42.805,6.029,0.033,-0.012,0.001,104.0,108.0,101.0,13.4,1505.3,327.8,-0.7,1.8,2470.354,13.32,0.035,110.0
2020-06-20T00:28:03,42.805,6.029,0.047,0.006,-0.001,105.0,107.0,101.0,13.3,1505.3,325.4,-0.7,1.8,2470.337,13.32,0.047,82.7
2020-06-20T00:31:03,42.805,6.029,0.029,-0.005,0.009,103.0,109.0,101.0,13.4,1505.3,327.2,-0.7,1.8,2470.399,13.32,0.029,99.8
2020-06-20T00:34:03,42.805,6.029,0.036,0.016,0.0,102.0,107.0,102.0,13.4,1505.3,324.8,-0.7,1.8,2470.384,13.32,0.039,66.0
2020-06-20T00:37:03,42.805,6.029,0.041,-0.01,-0.014,104.0,109.0,100.0,13.3,1505.3,327.2,-0.6,1.9,2470.339,13.32,0.042,103.7
2020-06-20T00:40:03,42.805,6.029,0.011,-0.002,-0.011,103.0,108.0,100.0,13.4,1505.3,324.0,-0.7,1.8,2470.331,13.32,0.011,100.3
2020-06-20T00:43:03,42.805,6.029,0.029,-0.01,-0.001,104.0,107.0,100.0,13.4,1505.3,323.5,-0.7,1.8,2470.336,13.32,0.03,109.0
2020-06-20T00:46:03,42.805,6.029,0.051,0.0,-0.02,104.0,108.0,102.0,13.4,1505.3,327.9,-0.7,1.8,2470.373,13.32,0.051,90.0
2020-06-20T00:49:03,42.805,6.029,0.034,-0.012,-0.003,104.0,109.0,99.0,13.4,1505.3,325.9,-0.7,1.8,2470.371,13.32,0.036,109.4
2020-06-20T00:52:03,42.805,6.029,0.025,0.006,0.01,103.0,108.0,101.0,13.4,1505.3,325.1,-0.7,1.8,2470.377,13.32,0.025,76.5
2020-06-20T00:55:03,42.805,6.029,0.027,0.005,-0.006,103.0,109.0,100.0,13.4,1505.3,327.9,-0.8,1.8,2470.377,13.32,0.027,79.5
2020-06-20T00:58:03,42.805,6.029,0.064,-0.004,0.036,105.0,110.0,100.0,13.3,1505.3,324.8,-0.7,1.9,2470.332,13.32,0.064,93.6
2020-06-20T01:04:03,42.805,6.029,0.023,0.01,-0.014,104.0,110.0,102.0,13.3,1505.2,324.8,-0.7,1.8,2470.419,13.3,0.025,66.5
2020-06-20T01:07:04,42.805,6.029,0.014,-0.002,-0.027,103.0,110.0,101.0,13.4,1505.3,323.6,-0.7,1.9,2470.436,13.31,0.014,98.1
2020-06-20T01:10:03,42.805,6.029,0.056,-0.006,-0.023,104.0,108.0,102.0,13.4,1505.3,324.6,-0.7,1.8,2470.359,13.31,0.056,96.1
2020-06-20T01:13:03,42.805,6.029,0.046,-0.004,0.01,104.0,107.0,100.0,13.4,1505.3,328.3,-0.7,1.8,2470.362,13.32,0.046,95.0
2020-06-20T01:16:03,42.805,6.029,0.009,0.023,0.009,102.0,112.0,100.0,13.4,1505.3,326.8,-0.7,1.8,2470.404,13.32,0.024,21.4
2020-06-20T01:19:03,42.805,6.029,0.046,0.018,0.004,103.0,109.0,99.0,13.4,1505.3,323.1,-0.7,1.8,2470.356,13.32,0.049,68.6
2020-06-20T01:22:03,42.805,6.029,0.039,0.007,-0.022,103.0,110.0,101.0,13.3,1505.3,327.3,-0.7,1.8,2470.379,13.32,0.039,79.8
2020-06-20T01:25:03,42.805,6.029,0.027,-0.001,-0.007,104.0,108.0,100.0,13.4,1505.3,325.8,-0.7,1.9,2470.358,13.32,0.027,92.1
2020-06-20T01:28:03,42.805,6.029,0.023,-0.004,-0.013,103.0,109.0,100.0,13.4,1505.3,325.9,-0.7,1.8,2470.357,13.32,0.023,99.9
2020-06-20T01:31:03,42.805,6.029,0.055,0.003,-0.014,105.0,110.0,101.0,13.3,1505.3,325.8,-0.7,1.8,2470.35,13.32,0.055,86.9
2020-06-20T01:34:03,42.805,6.029,0.049,0.0,-0.008,102.0,111.0,100.0,13.4,1505.3,325.1,-0.7,1.8,2470.389,13.32,0.049,90.0
2020-06-20T01:37:03,42.805,6.029,0.042,0.012,0.017,103.0,110.0,101.0,13.4,1505.3,322.8,-0.7,1.8,2470.306,13.32,0.043,74.1
2020-06-20T01:40:03,42.805,6.029,0.031,-0.011,-0.008,103.0,110.0,100.0,13.4,1505.3,328.7,-0.7,1.8,2470.332,13.32,0.032,109.5
2020-06-20T01:43:03,42.805,6.029,0.029,-0.012,-0.023,104.0,110.0,100.0,13.3,1505.3,327.3,-0.7,1.8,2470.402,13.32,0.031,112.5
2020-06-20T01:46:03,42.805,6.029,0.036,-0.005,-0.034,105.0,108.0,100.0,13.3,1505.3,326.9,-0.7,1.8,2470.375,13.32,0.036,97.9
2020-06-20T01:49:03,42.805,6.029,0.014,-0.007,0.009,103.0,110.0,100.0,13.4,1505.3,324.0,-0.7,1.8,2470.386,13.32,0.015,116.6
2020-06-20T01:52:03,42.805,6.029,0.011,0.013,-0.028,105.0,110.0,100.0,13.4,1505.3,326.4,-0.7,1.8,2470.336,13.32,0.017,40.2
2020-06-20T01:55:03,42.805,6.029,0.017,0.007,-0.002,104.0,108.0,100.0,13.3,1505.3,323.5,-0.7,1.8,2470.343,13.32,0.018,67.6
2020-06-20T01:58:03,42.805,6.029,0.027,0.001,0.016,103.0,108.0,100.0,13.4,1505.3,327.3,-0.7,1.8,2470.353,13.32,0.027,87.9
2020-06-20T02:04:03,42.805,6.029,0.033,0.006,-0.007,103.0,108.0,100.0,13.4,1505.2,324.5,-0.7,1.8,2470.419,13.3,0.033,79.7
2020-06-20T02:07:03,42.805,6.029,0.031,0.002,-0.014,104.0,109.0,101.0,13.3,1505.3,324.7,-0.7,1.8,2470.362,13.31,0.031,86.3
2020-06-20T02:10:03,42.805,6.029,0.049,0.007,0.014,103.0,107.0,102.0,13.4,1505.3,323.2,-0.7,1.8,2470.376,13.31,0.049,81.9
2020-06-20T02:13:03,42.805,6.029,0.049,0.0,0.005,103.0,111.0,101.0,13.3,1505.3,324.1,-0.7,1.8,2470.398,13.32,0.049,90.0
2020-06-20T02:16:03,42.805,6.029,0.035,0.008,0.023,103.0,110.0,101.0,13.4,1505.3,326.9,-0.7,1.8,2470.374,13.32,0.035,77.1
2020-06-20T02:19:03,42.805,6.029,0.048,0.009,0.009,103.0,110.0,100.0,13.4,1505.3,324.3,-0.7,1.8,2470.336,13.32,0.048,79.4
2020-06-20T02:22:03,42.805,6.029,0.063,0.005,0.014,104.0,110.0,101.0,13.4,1505.3,324.2,-0.7,1.9,2470.325,13.32,0.063,85.5
2020-06-20T02:25:03,42.805,6.029,0.038,0.005,-0.02,104.0,108.0,100.0,13.4,1505.3,326.6,-0.7,1.8,2470.386,13.32,0.038,82.5
2020-06-20T02:28:03,42.805,6.029,0.026,-0.016,-0.025,103.0,109.0,101.0,13.4,1505.3,326.8,-0.7,1.8,2470.357,13.32,0.03,121.6
2020-06-20T02:31:03,42.805,6.029,0.024,0.0,-0.008,103.0,113.0,100.0,13.4,1505.3,325.1,-0.7,1.8,2470.393,13.32,0.024,90.0
2020-06-20T02:37:03,42.805,6.029,0.036,0.0,-0.001,103.0,113.0,102.0,13.4,1505.2,325.1,-0.7,1.8,2470.397,13.3,0.036,90.0
2020-06-20T02:40:03,42.805,6.029,0.032,-0.01,-0.012,103.0,114.0,101.0,13.4,1505.3,324.8,-0.8,1.8,2470.395,13.31,0.033,107.4
2020-06-20T02:43:03,42.805,6.029,0.034,0.004,-0.02,103.0,109.0,101.0,13.4,1505.3,322.5,-0.7,1.8,2470.401,13.31,0.034,83.3
2020-06-20T02:46:03,42.805,6.029,0.066,0.003,0.014,103.0,111.0,102.0,13.4,1505.3,327.1,-0.7,1.8,2470.399,13.32,0.066,87.4
2020-06-20T02:49:03,42.805,6.029,0.038,-0.003,-0.008,104.0,112.0,101.0,13.4,1505.3,324.1,-0.7,1.8,2470.363,13.32,0.038,94.5
2020-06-20T02:52:03,42.805,6.029,0.036,0.001,0.01,104.0,111.0,101.0,13.3,1505.3,325.7,-0.7,1.8,2470.369,13.32,0.036,88.4
2020-06-20T02:55:03,42.805,6.029,0.049,0.006,0.002,104.0,109.0,101.0,13.4,1505.3,326.3,-0.7,1.8,2470.376,13.32,0.049,83.0
2020-06-20T02:58:03,42.805,6.029,0.045,0.003,-0.031,103.0,113.0,101.0,13.3,1505.3,324.5,-0.7,1.8,2470.401,13.32,0.045,86.2
2020-06-20T03:04:03,42.805,6.029,0.054,0.006,0.005,103.0,108.0,100.0,13.4,1505.2,324.5,-0.7,1.8,2470.398,13.3,0.054,83.7
2020-06-20T03:07:03,42.805,6.029,0.041,0.012,0.0,103.0,109.0,101.0,13.4,1505.3,325.1,-0.7,1.8,2470.395,13.31,0.042,73.7
2020-06-20T03:10:03,42.805,6.029,0.027,0.003,-0.03,102.0,113.0,101.0,13.4,1505.3,327.0,-0.7,1.8,2470.407,13.31,0.027,83.7
2020-06-20T03:13:03,42.805,6.029,0.039,0.0,0.004,103.0,108.0,100.0,13.4,1505.3,327.0,-0.7,1.9,2470.389,13.32,0.039,90.0
2020-06-20T03:16:03,42.805,6.029,0.046,0.015,-0.011,103.0,110.0,101.0,13.4,1505.3,324.5,-0.7,1.9,2470.368,13.32,0.048,71.9
2020-06-20T03:19:03,42.805,6.029,0.04,-0.006,-0.03,104.0,108.0,101.0,13.4,1505.3,325.0,-0.7,1.9,2470.412,13.32,0.04,98.5
2020-06-20T03:22:03,42.805,6.029,0.046,-0.003,0.0,103.0,109.0,100.0,13.4,1505.3,323.1,-0.7,1.8,2470.38,13.32,0.046,93.7
2020-06-20T03:25:03,42.805,6.029,0.037,-0.003,-0.021,103.0,110.0,101.0,13.4,1505.3,325.1,-0.7,1.9,2470.38,13.32,0.037,94.6
2020-06-20T03:28:03,42.805,6.029,0.04,-0.003,-0.018,103.0,111.0,101.0,13.3,1505.3,325.7,-0.7,1.8,2470.346,13.32,0.04,94.3
2020-06-20T03:31:03,42.805,6.029,0.048,-0.013,-0.036,104.0,109.0,100.0,13.4,1505.3,324.7,-0.7,1.8,2470.371,13.32,0.049,105.2
2020-06-20T03:34:03,42.805,6.029,0.037,-0.016,-0.024,103.0,109.0,101.0,13.4,1505.3,324.5,-0.7,1.8,2470.387,13.32,0.04,113.4
2020-06-20T03:37:03,42.805,6.029,0.025,0.005,-0.017,104.0,112.0,100.0,13.4,1505.3,325.0,-0.7,1.8,2470.432,13.32,0.025,78.7
2020-06-20T03:40:03,42.805,6.029,0.038,0.007,0.001,103.0,110.0,101.0,13.3,1505.3,323.6,-0.7,1.8,2470.408,13.32,0.038,79.6
2020-06-20T03:43:03,42.805,6.029,0.042,0.016,-0.003,102.0,111.0,101.0,13.4,1505.3,323.5,-0.7,1.8,2470.375,13.32,0.044,69.1
2020-06-20T03:46:03,42.805,6.029,0.05,0.02,0.028,103.0,110.0,101.0,13.4,1505.3,325.1,-0.7,1.9,2470.403,13.32,0.053,68.2
2020-06-20T03:49:03,42.805,6.029,0.039,0.003,-0.008,103.0,111.0,100.0,13.3,1505.3,326.8,-0.7,1.8,2470.384,13.32,0.039,85.6
2020-06-20T03:52:03,42.805,6.029,0.066,-0.013,0.012,103.0,108.0,101.0,13.3,1505.3,327.7,-0.7,1.8,2470.4,13.32,0.067,101.1
2020-06-20T03:55:03,42.805,6.029,0.024,0.013,-0.028,103.0,112.0,100.0,13.4,1505.3,325.9,-0.7,1.8,2470.403,13.32,0.027,61.6
2020-06-20T04:04:03,42.805,6.029,0.044,-0.014,0.015,106.0,109.0,101.0,13.3,1505.2,324.8,-0.8,1.8,2470.512,13.29,0.046,107.6
2020-06-20T04:07:03,42.805,6.029,0.053,0.005,-0.011,104.0,110.0,101.0,13.4,1505.2,326.2,-0.7,1.8,2470.456,13.3,0.053,84.6
2020-06-20T04:10:03,42.805,6.029,0.064,0.01,-0.019,103.0,111.0,101.0,13.3,1505.3,325.8,-0.7,1.8,2470.463,13.31,0.064,81.1
2020-06-20T04:13:03,42.805,6.029,0.038,-0.01,0.002,102.0,112.0,100.0,13.4,1505.3,327.5,-0.7,1.9,2470.474,13.31,0.039,104.7
2020-06-20T04:16:03,42.805,6.029,0.032,-0.013,-0.03,104.0,111.0,101.0,13.4,1505.3,324.4,-0.8,1.8,2470.447,13.32,0.034,112.1
2020-06-20T04:19:03,42.805,6.029,0.063,0.001,0.017,103.0,109.0,100.0,13.4,1505.3,325.5,-0.7,1.8,2470.472,13.32,0.063,89.1
2020-06-20T04:22:03,42.805,6.029,0.027,-0.003,-0.024,103.0,109.0,101.0,13.4,1505.3,328.3,-0.7,1.8,2470.434,13.32,0.027,96.3
2020-06-20T04:25:03,42.805,6.029,0.042,0.016,0.011,104.0,109.0,101.0,13.4,1505.3,324.9,-0.7,1.8,2470.443,13.32,0.044,69.1
2020-06-20T04:28:03,42.805,6.029,0.039,-0.01,-0.022,104.0,112.0,101.0,13.4,1505.3,324.9,-0.7,1.8,2470.429,13.32,0.04,104.4
2020-06-20T04:31:03,42.805,6.029,0.036,0.0,0.005,104.0,110.0,101.0,13.4,1505.3,324.6,-0.7,1.8,2470.436,13.32,0.036,90.0
2020-06-20T04:34:03,42.805,6.029,0.045,0.0,-0.038,104.0,110.0,100.0,13.4,1505.3,324.0,-0.7,1.8,2470.449,13.32,0.045,90.0
2020-06-20T04:37:03,42.805,6.029,0.043,-0.004,-0.023,103.0,111.0,100.0,13.3,1505.3,326.2,-0.7,1.8,2470.493,13.32,0.043,95.3
2020-06-20T04:40:03,42.805,6.029,0.057,-0.008,0.008,101.0,109.0,101.0,13.4,1505.3,324.0,-0.7,1.8,2470.468,13.32,0.057,98.0
2020-06-20T04:43:03,42.805,6.029,0.055,-0.001,0.002,104.0,109.0,100.0,13.4,1505.3,328.0,-0.7,1.8,2470.408,13.32,0.055,91.0
2020-06-20T04:46:03,42.805,6.029,0.059,-0.016,-0.003,102.0,109.0,100.0,13.4,1505.3,326.6,-0.7,1.8,2470.472,13.32,0.061,105.2
2020-06-20T04:49:03,42.805,6.029,0.055,-0.001,-0.006,103.0,110.0,101.0,13.3,1505.3,328.2,-0.7,1.8,2470.419,13.32,0.055,91.0
2020-06-20T04:52:03,42.805,6.029,0.046,-0.002,-0.019,104.0,109.0,101.0,13.4,1505.3,326.7,-0.8,1.8,2470.423,13.32,0.046,92.5
2020-06-20T04:55:03,42.805,6.029,0.064,-0.018,-0.001,104.0,108.0,100.0,13.3,1505.3,327.1,-0.7,1.8,2470.435,13.32,0.066,105.7
2020-06-20T04:58:03,42.805,6.029,0.022,-0.012,-0.011,103.0,109.0,102.0,13.4,1505.3,328.5,-0.7,1.8,2470.428,13.32,0.025,118.6
2020-06-20T05:04:03,42.805,6.029,0.031,-0.004,-0.056,103.0,105.0,101.0,13.3,1505.2,328.5,-0.7,1.8,2470.477,13.3,0.031,97.3
2020-06-20T05:07:03,42.805,6.029,0.039,-0.002,-0.021,104.0,108.0,100.0,13.4,1505.3,326.1,-0.7,1.8,2470.472,13.31,0.039,92.9
2020-06-20T05:10:03,42.805,6.029,0.028,-0.013,-0.011,102.0,107.0,101.0,13.4,1505.3,326.9,-0.7,1.9,2470.481,13.31,0.03,114.9
2020-06-20T05:13:03,42.805,6.029,0.043,0.0,0.013,103.0,106.0,100.0,13.3,1505.3,324.5,-0.7,1.8,2470.418,13.32,0.043,90.0
2020-06-20T05:16:03,42.805,6.029,0.052,-0.026,-0.012,104.0,111.0,101.0,13.3,1505.3,325.6,-0.7,1.8,2470.47,13.32,0.058,116.6
2020-06-20T05:19:03,42.805,6.029,0.056,-0.007,0.018,103.0,108.0,100.0,13.4,1505.3,324.9,-0.7,1.8,2470.436,13.32,0.056,97.1
2020-06-20T05:22:03,42.805,6.029,0.055,-0.003,-0.014,103.0,109.0,100.0,13.4,1505.3,327.4,-0.7,1.8,2470.461,13.32,0.055,93.1
2020-06-20T05:25:03,42.805,6.029,0.045,-0.02,0.005,103.0,109.0,101.0,13.4,1505.3,328.3,-0.7,1.8,2470.437,13.32,0.049,114.0
2020-06-20T05:28:03,42.805,6.029,0.045,-0.01,-0.003,105.0,110.0,100.0,13.3,1505.3,323.4,-0.7,1.8,2470.419,13.32,0.046,102.5
2020-06-20T05:31:03,42.805,6.029,0.036,-0.004,-0.019,103.0,109.0,102.0,13.3,1505.3,327.5,-0.7,1.8,2470.464,13.32,0.036,96.3
2020-06-20T05:34:03,42.805,6.029,0.066,-0.003,0.01,104.0,108.0,101.0,13.4,1505.3,324.9,-0.7,1.9,2470.432,13.32,0.066,92.6
2020-06-20T05:37:03,42.805,6.029,0.046,-0.002,0.007,104.0,108.0,100.0,13.4,1505.3,325.2,-0.7,1.8,2470.438,13.32,0.046,92.5
2020-06-20T05:40:03,42.805,6.029,0.05,-0.011,-0.014,103.0,110.0,101.0,13.4,1505.3,327.9,-0.7,1.8,2470.441,13.32,0.051,102.4
2020-06-20T05:43:03,42.805,6.029,0.051,0.01,-0.007,103.0,109.0,100.0,13.4,1505.3,326.8,-0.7,1.8,2470.45,13.32,0.051,78.9
2020-06-20T05:46:03,42.805,6.029,0.057,0.007,-0.025,104.0,110.0,101.0,13.4,1505.3,327.3,-0.7,1.8,2470.454,13.32,0.057,83.0
2020-06-20T05:49:03,42.805,6.029,0.051,-0.009,0.019,103.0,108.0,101.0,13.4,1505.3,325.0,-0.7,1.8,2470.423,13.32,0.051,100.0
2020-06-20T05:52:03,42.805,6.029,0.048,-0.001,0.011,103.0,109.0,101.0,13.4,1505.3,326.7,-0.7,1.9,2470.426,13.32,0.048,91.2
2020-06-20T05:55:03,42.805,6.029,0.045,0.006,-0.002,103.0,110.0,101.0,13.4,1505.3,323.8,-0.7,1.8,2470.43,13.32,0.045,82.4
2020-06-20T05:58:03,42.805,6.029,0.057,-0.001,-0.001,104.0,109.0,101.0,13.4,1505.3,327.8,-0.7,1.8,2470.43,13.32,0.057,91.0
2020-06-20T06:04:03,42.805,6.029,0.053,-0.005,-0.024,103.0,109.0,101.0,13.4,1505.2,323.5,-0.7,1.9,2470.491,13.3,0.053,95.4
2020-06-20T06:07:03,42.805,6.029,0.038,0.001,0.016,103.0,108.0,101.0,13.3,1505.3,324.6,-0.8,1.8,2470.475,13.31,0.038,88.5
2020-06-20T06:10:03,42.805,6.029,0.041,-0.018,0.001,104.0,108.0,101.0,13.3,1505.3,325.5,-0.7,1.8,2470.428,13.31,0.044,113.7
2020-06-20T06:13:03,42.805,6.029,0.049,-0.018,0.0,104.0,109.0,102.0,13.4,1505.3,323.7,-0.6,1.8,2470.451,13.32,0.052,110.2
2020-06-20T06:16:03,42.805,6.029,0.035,-0.005,-0.023,103.0,109.0,102.0,13.4,1505.3,324.3,-0.7,1.9,2470.496,13.32,0.035,98.1
2020-06-20T06:19:03,42.805,6.029,0.069,-0.004,0.0,104.0,108.0,100.0,13.3,1505.3,325.6,-0.7,1.8,2470.433,13.32,0.069,93.3
2020-06-20T06:25:03,42.805,6.029,0.046,0.0,-0.025,105.0,108.0,101.0,13.3,1505.2,325.4,-0.7,1.8,2470.484,13.3,0.046,90.0
2020-06-20T06:28:03,42.805,6.029,0.046,0.008,-0.001,104.0,109.0,101.0,13.4,1505.3,324.1,-0.7,1.8,2470.487,13.31,0.046,80.1
2020-06-20T06:31:03,42.805,6.029,0.049,0.012,-0.015,105.0,110.0,101.0,13.4,1505.3,323.9,-0.7,1.8,2470.49,13.31,0.05,76.2
2020-06-20T06:34:03,42.805,6.029,0.043,0.008,-0.027,104.0,110.0,100.0,13.3,1505.3,326.1,-0.7,1.8,2470.465,13.32,0.043,79.5
2020-06-20T06:37:03,42.805,6.029,0.044,0.016,-0.009,104.0,110.0,101.0,13.4,1505.3,324.3,-0.7,1.9,2470.431,13.32,0.046,70.0
2020-06-20T06:40:03,42.805,6.029,0.044,-0.006,-0.021,104.0,110.0,101.0,13.4,1505.3,327.7,-0.7,1.8,2470.503,13.32,0.044,97.8
2020-06-20T06:43:03,42.805,6.029,0.059,0.01,0.001,105.0,106.0,101.0,13.4,1505.3,326.8,-0.7,1.8,2470.422,13.32,0.059,80.4
2020-06-20T06:46:03,42.805,6.029,0.034,-0.005,-0.024,103.0,109.0,101.0,13.4,1505.3,326.9,-0.7,1.8,2470.481,13.32,0.034,98.4
2020-06-20T06:49:03,42.805,6.029,0.06,-0.017,0.009,102.0,110.0,101.0,13.4,1505.3,326.4,-0.7,1.8,2470.484,13.32,0.062,105.8
2020-06-20T06:52:03,42.805,6.029,0.049,0.01,0.009,103.0,108.0,100.0,13.3,1505.3,326.5,-0.7,1.8,2470.485,13.32,0.05,78.5
2020-06-20T06:55:03,42.805,6.029,0.028,-0.022,-0.025,103.0,109.0,102.0,13.4,1505.3,326.3,-0.7,1.8,2470.447,13.32,0.035,128.2
2020-06-20T06:58:03,42.805,6.029,0.043,-0.006,-0.002,104.0,109.0,101.0,13.4,1505.3,327.1,-0.7,1.8,2470.448,13.32,0.043,97.9
2020-06-20T07:04:03,42.805,6.029,0.027,0.0,-0.014,104.0,108.0,101.0,13.4,1505.2,324.8,-0.7,1.8,2470.493,13.3,0.026,90.0
2020-06-20T07:07:03,42.805,6.029,0.049,-0.002,-0.015,104.0,108.0,101.0,13.3,1505.3,324.7,-0.7,1.8,2470.448,13.31,0.049,92.3
2020-06-20T07:10:03,42.805,6.029,0.031,0.0,0.009,103.0,107.0,101.0,13.4,1505.3,326.4,-0.7,1.8,2470.445,13.31,0.03,90.0
2020-06-20T07:13:03,42.805,6.029,0.049,-0.005,-0.019,103.0,110.0,101.0,13.4,1505.3,324.4,-0.7,1.8,2470.452,13.32,0.049,95.8
2020-06-20T07:16:03,42.805,6.029,0.057,-0.036,-0.02,103.0,109.0,101.0,13.4,1505.3,324.3,-0.7,1.8,2470.426,13.32,0.067,122.3
2020-06-20T07:19:03,42.805,6.029,0.041,0.001,0.001,104.0,109.0,100.0,13.4,1505.3,323.8,-0.7,1.8,2470.448,13.32,0.041,88.6
2020-06-20T07:22:03,42.805,6.029,0.061,-0.013,0.013,103.0,108.0,100.0,13.4,1505.3,324.0,-0.7,1.8,2470.486,13.32,0.062,102.0
2020-06-20T07:25:03,42.805,6.029,0.062,-0.019,-0.01,105.0,108.0,101.0,13.4,1505.3,326.5,-0.7,1.8,2470.474,13.32,0.064,107.0
2020-06-20T07:28:03,42.805,6.029,0.051,-0.023,0.011,104.0,110.0,101.0,13.4,1505.3,328.0,-0.7,1.8,2470.444,13.32,0.055,114.3
2020-06-20T07:31:03,42.805,6.029,0.071,0.004,-0.025,104.0,107.0,101.0,13.4,1505.3,323.0,-0.7,1.8,2470.424,13.32,0.071,86.8
2020-06-20T07:34:03,42.805,6.029,0.03,0.012,-0.009,103.0,105.0,102.0,13.3,1505.3,326.2,-0.7,1.8,2470.418,13.32,0.032,68.2
2020-06-20T07:37:03,42.805,6.029,0.071,-0.025,-0.02,103.0,107.0,101.0,13.3,1505.3,324.1,-0.7,1.8,2470.433,13.32,0.075,109.4
2020-06-20T07:40:03,42.805,6.029,0.048,0.001,0.004,104.0,106.0,102.0,13.4,1505.3,324.8,-0.7,1.8,2470.405,13.32,0.048,88.8
2020-06-20T07:43:03,42.805,6.029,0.063,-0.021,-0.011,102.0,107.0,101.0,13.4,1505.3,325.0,-0.7,1.8,2470.459,13.32,0.066,108.4
2020-06-20T07:46:03,42.805,6.029,0.035,-0.031,-0.036,103.0,107.0,100.0,13.4,1505.3,326.8,-0.7,1.8,2470.454,13.32,0.046,131.5
2020-06-20T07:49:03,42.805,6.029,0.026,-0.027,-0.017,103.0,106.0,100.0,13.4,1505.3,323.4,-0.7,1.8,2470.409,13.32,0.037,136.1
2020-06-20T07:52:03,42.805,6.029,0.035,-0.012,-0.014,104.0,105.0,101.0,13.4,1505.3,326.9,-0.7,1.8,2470.436,13.32,0.037,108.9
2020-06-20T07:55:03,42.805,6.029,0.055,-0.005,-0.008,104.0,106.0,101.0,13.4,1505.3,327.8,-0.7,1.8,2470.441,13.32,0.055,95.2
2020-06-20T07:58:03,42.805,6.029,0.041,-0.014,-0.004,103.0,106.0,101.0,13.4,1505.3,325.6,-0.7,1.8,2470.447,13.32,0.043,108.9
2020-06-20T08:04:03,42.805,6.029,0.049,-0.003,-0.002,104.0,106.0,101.0,13.4,1505.2,324.3,-0.8,1.8,2470.426,13.3,0.049,93.5
2020-06-20T08:07:03,42.805,6.029,0.022,-0.026,-0.014,102.0,108.0,101.0,13.4,1505.3,325.5,-0.7,1.8,2470.421,13.31,0.034,139.8
2020-06-20T08:10:03,42.805,6.029,0.048,0.001,-0.045,104.0,106.0,100.0,13.3,1505.3,322.8,-0.7,1.8,2470.431,13.31,0.048,88.8
2020-06-20T08:13:03,42.805,6.029,0.054,-0.013,-0.009,104.0,107.0,101.0,13.4,1505.3,326.2,-0.7,1.8,2470.416,13.32,0.055,103.5
2020-06-20T08:16:03,42.805,6.029,0.056,-0.015,-0.029,105.0,107.0,102.0,13.4,1505.3,328.3,-0.7,1.8,2470.401,13.32,0.057,105.0
2020-06-20T08:19:03,42.805,6.029,0.045,-0.02,-0.009,103.0,107.0,100.0,13.4,1505.3,325.0,-0.7,1.8,2470.447,13.32,0.049,114.0
2020-06-20T08:22:03,42.805,6.029,0.049,-0.028,-0.018,103.0,105.0,100.0,13.4,1505.3,324.6,-0.7,1.8,2470.405,13.32,0.056,119.7
2020-06-20T08:25:03,42.805,6.029,0.049,-0.018,-0.041,103.0,106.0,103.0,13.4,1505.3,326.6,-0.7,1.8,2470.382,13.32,0.052,110.2
2020-06-20T08:28:03,42.805,6.029,0.046,-0.031,-0.046,103.0,106.0,101.0,13.4,1505.3,326.5,-0.7,1.8,2470.421,13.32,0.055,124.0
2020-06-20T08:31:03,42.805,6.029,0.033,-0.006,-0.008,104.0,106.0,101.0,13.4,1505.3,325.2,-0.7,1.9,2470.403,13.32,0.033,100.3
2020-06-20T08:34:03,42.805,6.029,0.04,-0.022,-0.029,103.0,107.0,101.0,13.3,1505.3,326.4,-0.7,1.8,2470.448,13.32,0.045,118.8
2020-06-20T08:37:03,42.805,6.029,0.064,-0.016,0.0,102.0,106.0,101.0,13.3,1505.3,325.8,-0.7,1.9,2470.4,13.32,0.065,104.0
2020-06-20T08:40:03,42.805,6.029,0.069,-0.014,0.0,104.0,105.0,100.0,13.4,1505.3,323.2,-0.7,1.8,2470.372,13.32,0.07,101.5
2020-06-20T08:43:03,42.805,6.029,0.029,-0.02,-0.021,104.0,106.0,100.0,13.3,1505.3,328.5,-0.7,1.8,2470.398,13.32,0.035,124.6
2020-06-20T08:46:03,42.805,6.029,0.053,-0.004,-0.023,104.0,106.0,101.0,13.3,1505.3,325.9,-0.7,1.8,2470.449,13.32,0.053,94.3
2020-06-20T08:49:03,42.805,6.029,0.052,-0.022,0.001,103.0,108.0,100.0,13.4,1505.3,323.5,-0.8,1.8,2470.393,13.32,0.056,112.9
2020-06-20T08:52:03,42.805,6.029,0.033,-0.024,-0.021,105.0,106.0,100.0,13.3,1505.3,325.2,-0.7,1.8,2470.407,13.32,0.04,126.0
2020-06-20T08:55:03,42.805,6.029,0.037,-0.014,0.004,106.0,106.0,100.0,13.3,1505.3,323.8,-0.7,1.8,2470.377,13.32,0.039,110.7
2020-06-20T08:58:03,42.805,6.029,0.035,-0.016,-0.026,104.0,106.0,100.0,13.4,1505.3,328.4,-0.7,1.8,2470.389,13.32,0.038,114.6
2020-06-20T09:04:03,42.805,6.029,0.046,-0.018,-0.019,104.0,106.0,100.0,13.4,1505.2,327.9,-0.8,1.8,2470.443,13.3,0.049,111.4
2020-06-20T09:07:03,42.805,6.029,0.04,0.002,0.009,104.0,104.0,100.0,13.3,1505.3,325.5,-0.7,1.9,2470.351,13.31,0.04,87.1
2020-06-20T09:10:03,42.805,6.029,0.052,-0.033,-0.001,103.0,104.0,101.0,13.4,1505.3,326.9,-0.6,1.8,2470.382,13.31,0.061,122.4
2020-06-20T09:13:03,42.805,6.029,0.056,-0.015,-0.002,102.0,104.0,100.0,13.4,1505.3,323.3,-0.7,1.8,2470.372,13.32,0.057,105.0
2020-06-20T09:16:03,42.805,6.029,0.041,-0.005,-0.004,102.0,105.0,101.0,13.4,1505.3,325.4,-0.7,1.8,2470.389,13.32,0.041,97.0
2020-06-20T09:19:03,42.805,6.029,0.052,-0.017,-0.016,103.0,105.0,100.0,13.3,1505.3,325.4,-0.7,1.8,2470.392,13.32,0.054,108.1
2020-06-20T09:22:03,42.805,6.029,0.055,-0.007,0.029,103.0,106.0,101.0,13.4,1505.3,325.2,-0.8,1.8,2470.36,13.32,0.055,97.3
2020-06-20T09:25:03,42.805,6.029,0.038,0.001,0.0,103.0,107.0,100.0,13.4,1505.3,324.6,-0.7,1.8,2470.371,13.32,0.038,88.5
2020-06-20T09:28:03,42.805,6.029,0.049,0.0,-0.02,104.0,104.0,100.0,13.4,1505.3,328.2,-0.7,1.8,2470.337,13.32,0.049,90.0
2020-06-20T09:31:03,42.805,6.029,0.046,-0.023,-0.035,104.0,106.0,101.0,13.4,1505.3,326.2,-0.7,1.8,2470.333,13.32,0.051,116.6
2020-06-20T09:34:03,42.805,6.029,0.05,-0.006,-0.007,102.0,105.0,102.0,13.4,1505.3,326.7,-0.7,1.8,2470.353,13.32,0.05,96.8
2020-06-20T09:37:03,42.805,6.029,0.04,-0.009,-0.017,104.0,106.0,100.0,13.4,1505.3,326.4,-0.7,1.8,2470.355,13.32,0.041,102.7
2020-06-20T09:40:03,42.805,6.029,0.027,-0.028,-0.04,103.0,105.0,101.0,13.4,1505.3,325.7,-0.7,1.8,2470.379,13.32,0.038,136.0
2020-06-20T09:43:03,42.805,6.029,0.071,-0.011,-0.016,103.0,106.0,100.0,13.4,1505.3,326.8,-0.7,1.8,2470.378,13.32,0.071,98.8
2020-06-20T09:46:03,42.805,6.029,0.034,-0.033,-0.009,104.0,106.0,100.0,13.4,1505.3,328.2,-0.7,1.8,2470.332,13.32,0.047,134.1
2020-06-20T09:49:03,42.805,6.029,0.066,-0.012,-0.012,103.0,105.0,99.0,13.4,1505.3,323.3,-0.7,1.8,2470.356,13.32,0.067,100.3
2020-06-20T09:52:03,42.805,6.029,0.064,-0.037,0.0,103.0,104.0,101.0,13.4,1505.3,326.0,-0.7,1.8,2470.338,13.32,0.073,120.0
2020-06-20T09:55:03,42.805,6.029,0.043,-0.012,-0.013,103.0,107.0,101.0,13.3,1505.3,324.8,-0.7,1.8,2470.352,13.32,0.044,105.6
2020-06-20T09:58:03,42.805,6.029,0.042,-0.021,-0.001,103.0,107.0,101.0,13.3,1505.3,326.8,-0.7,1.8,2470.315,13.32,0.046,116.6
2020-06-20T10:04:03,42.805,6.029,0.056,-0.028,-0.014,104.0,106.0,100.0,13.3,1505.2,324.7,-0.8,1.8,2470.361,13.3,0.062,116.6
2020-06-20T10:07:03,42.805,6.029,0.047,-0.019,-0.003,104.0,106.0,100.0,13.3,1505.3,326.9,-0.7,1.8,2470.354,13.31,0.05,112.0
2020-06-20T10:10:03,42.805,6.029,0.058,-0.027,-0.038,105.0,105.0,101.0,13.4,1505.3,324.5,-0.6,1.8,2470.362,13.31,0.063,115.0
2020-06-20T10:13:03,42.805,6.029,0.06,-0.031,-0.003,104.0,104.0,101.0,13.4,1505.3,326.2,-0.7,1.8,2470.326,13.32,0.067,117.3